Погода в Стоктоне

США     37°55′16″N   121°15′41″W
темп.,
°C
ветер,
м/с
пор.,
м/с
влажн.,
%
обл.,
%
осадки,
мм/ч
давл.,
гПа
погр.,
м
19 апреля, пн
пн1923:00+17вюв112986 0.0 101722
02:00+15ю003481 0.0 101711
05:00+13з0040100 0.0 101713
08:00+15зсз114171 0.0 1019136
11:00+24з11250 0.0 1018686
14:00+30зсз121815 0.0 10161244
17:00+30зсз44195 0.0 10131864
20:00+19зюз483914 0.0 1014209
20 апреля, вт
вт2023:00+14з24540 0.0 1014108
02:00+12з34645 0.0 1014110
05:00+11сз1271100 0.0 101476
08:00+12з1266100 0.0 1014207
11:00+21зсз12360 0.0 1012777
14:00+26зюз34240 0.0 10091885
17:00+23юз77330 0.0 10081171
20:00+16з4105512 0.0 1009549
21 апреля, ср
ср2123:00+13зюз23711 0.0 1008110
02:00+12зсз39740 0.0 1008235
05:00+11зсз26830 0.0 1009161
08:00+13з12690 0.0 1010245
11:00+22зсз23320 0.0 10101039
14:00+28сз35160 0.0 10081968
17:00+29сз45140 0.0 10052660
20:00+20з36320 0.0 1006202
22 апреля, чт
чт2223:00+14ссз11520 0.0 1009107
02:00+13ссз22580 0.0 100957
05:00+11ссз12680 0.0 101071
08:00+13зсз12634 0.0 1012236
11:00+22зсз22335 0.0 1012770
14:00+29сз23185 0.0 10101674
17:00+29сз55160 0.0 10081935
20:00+21зсз37340 0.0 1009276
23 апреля, пт
пт2323:00+14с125820 0.0 1011152
02:00+12з246713 0.0 1011122
05:00+10сз237519 0.0 1012107
08:00+12ссз12675 0.0 1014277
11:00+21юз12370 0.0 1013790
14:00+27ююз22210 0.0 10111414
17:00+28юз44205 0.0 10101813
20:00+17зюз484892 0.0 1012262